Tracking 21076 objects as of 7-Aug-2020
HD Live streaming from Space Station
objects crossing your sky now

FREGAT DEB

Track FREGAT DEB now!
10-day predictions


NORAD ID: 45640
Int'l Code: 2011-037AG
Perigee: 696.1 km
Apogee: 5,064.2 km
Inclination: 51.6 °
Period: 147.6 minutes
Semi major axis: 9251 km
RCS: Unknown
Launch date: July 18, 2011
Source: Commonwealth of Independent States (former USSR) (CIS)
Launch site: TYURATAM MISSILE AND SPACE COMPLEX (TTMTR)

Note: This is SATELLITE DEBRIS
aabbcc
Your satellite tracking list
Your tracking list is empty




NASA's NSSDC Master Catalog

Two Line Element Set (TLE):
1 45640U 11037AG  20174.73732563  .00068957  00000-0  13789+0 0  9993
2 45640  51.5822   7.5730 2360875  36.3933 337.6277  9.75685031  2410
Source of the keplerian elements: AFSPC